This is the latest recevied weather packets stored in our database for station/object WV5G-13. If no packets are shown the sender has not sent any weather packets the latest 10 day(s).
| Time | Temp. | Humidity | Pressure | Rain* | Wind** | Luminosity | Snow |
|---|---|---|---|---|---|---|---|
| 1777306167 | 22.22° C | 20% | 1007 hPa | 0 mm | - | 743 W/m² | - |
| 1777305862 | 21.67° C | 22% | 1007.1 hPa | 0 mm | - | 733 W/m² | - |
| 1777305559 | 21.11° C | 21% | 1006.9 hPa | 0 mm | - | 721 W/m² | - |
| 1777305255 | 21.67° C | 22% | 1007.2 hPa | 0 mm | - | 709 W/m² | - |
| 1777304949 | 20.56° C | 23% | 1007.1 hPa | 0 mm | - | 696 W/m² | - |
| 1777304646 | 20.56° C | 23% | 1006.9 hPa | 0 mm | - | 678 W/m² | - |
| 1777304343 | 20.56° C | 23% | 1007 hPa | 0 mm | - | 662 W/m² | - |
| 1777304041 | 20.56° C | 23% | 1007 hPa | 0 mm | - | 646 W/m² | - |
| 1777303736 | 20.56° C | 23% | 1006.9 hPa | 0 mm | - | 630 W/m² | - |
| 1777303434 | 20.56° C | 24% | 1006.8 hPa | 0 mm | - | 607 W/m² | - |
| 1777303131 | 20.56° C | 23% | 1006.8 hPa | 0 mm | - | 588 W/m² | - |
| 1777302830 | 20° C | 23% | 1006.8 hPa | 0 mm | - | 568 W/m² | - |
| 1777302527 | 20° C | 24% | 1006.6 hPa | 0 mm | - | 549 W/m² | - |
| 1777302225 | 20° C | 24% | 1006.8 hPa | 0 mm | - | 535 W/m² | - |
| 1777301922 | 20° C | 24% | 1006.8 hPa | 0 mm | - | 511 W/m² | - |
| 1777301619 | 20° C | 24% | 1006.6 hPa | 0 mm | - | 488 W/m² | - |
| 1777301316 | 20° C | 24% | 1006.7 hPa | 0 mm | - | 466 W/m² | - |
| 1777301013 | 19.44° C | 25% | 1006.8 hPa | 0 mm | - | 451 W/m² | - |
| 1777300710 | 18.89° C | 26% | 1007 hPa | 0 mm | - | 436 W/m² | - |
| 1777300408 | 18.33° C | 26% | 1006.7 hPa | 0 mm | - | 416 W/m² | - |
| 1777300106 | 18.33° C | 26% | 1006.6 hPa | 0 mm | - | 394 W/m² | - |
| 1777299802 | 17.78° C | 26% | 1006.6 hPa | 0 mm | - | 373 W/m² | - |
| 1777299500 | 17.78° C | 26% | 1006.7 hPa | 0 mm | - | 356 W/m² | - |
| 1777299197 | 17.78° C | 26% | 1006.7 hPa | 0 mm | - | 340 W/m² | - |
| 1777298894 | 17.78° C | 26% | 1006.6 hPa | 0 mm | - | 322 W/m² | - |
* Rain latest hour (hover to see other rain measurements)
** Current wind speed in m/s (hover to see current wind gust speed)